FW9691 Weather Reports


time (UTC)temp
F
wind
direction
speed
knots
gust
knots
rain 1hr
in
rain 24hr
in
rain mn
in
humidity
%
barometer
mb
20260510143039 74 288 9.6 14.8 0.00 0.00 0.00 30 1004.8
20260510141527 73 221 4.3 7.0 0.00 0.00 0.00 37 1004.9
20260510140027 72 146 3.5 5.2 0.00 0.00 0.00 39 1004.4
20260510133015 69 136 0.9 2.6 0.00 0.00 0.00 44 1003.8
20260510131512 67 136 0.0 0.9 0.00 0.00 0.00 48 1003.6
20260510130015 65 136 1.7 6.1 0.00 0.00 0.00 48 1003.3
20260510123003 64 136 3.5 6.1 0.00 0.00 0.00 46 1002.9
20260510121600 65 136 5.2 7.0 0.00 0.00 0.00 44 1002.7
20260510121502 65 136 5.2 7.0 0.00 0.00 0.00 44 1002.7
20260510120056 66 137 1.7 4.3 0.00 0.00 0.00 43 1002.5
20260510114656 66 138 2.6 4.3 0.00 0.00 0.00 42 1002.6
20260510113013 66 138 2.6 4.3 0.00 0.00 0.00 42 1002.3
20260510111507 66 138 2.6 6.1 0.00 0.00 0.00 40 1002.3
20260510110009 67 138 2.6 6.1 0.00 0.00 0.00 39 1002.3
20260510103055 68 141 4.3 7.0 0.00 0.00 0.00 36 1002.1
20260510101554 69 142 3.5 5.2 0.00 0.00 0.00 35 1001.9
20260510100053 69 142 2.6 4.3 0.00 0.00 0.00 34 1001.9
20260510094651 69 143 4.3 7.8 0.00 0.00 0.00 33 1001.8
20260510093050 70 144 4.3 7.8 0.00 0.00 0.00 32 1001.8
20260510091555 70 155 2.6 10.4 0.00 0.00 0.00 32 1001.9
20260510090059 71 158 7.8 10.4 0.00 0.00 0.00 30 1002.0
20260510084644 72 170 8.7 13.0 0.00 0.00 0.00 29 1002.0
20260510083043 72 174 9.6 13.0 0.00 0.00 0.00 29 1001.8
20260510081544 73 163 11.3 13.9 0.00 0.00 0.00 28 1001.6
20260510080037 74 161 12.2 16.5 0.00 0.00 0.00 27 1001.6
20260510074633 74 165 12.2 16.5 0.00 0.00 0.00 27 1001.7
20260510073038 74 164 12.2 15.6 0.00 0.00 0.00 27 1001.8
20260510071536 75 160 12.2 16.5 0.00 0.00 0.00 26 1001.9
20260510070028 76 159 13.0 17.4 0.00 0.00 0.00 25 1002.0
20260510064623 76 155 12.2 16.5 0.00 0.00 0.00 25 1002.2
20260510063024 76 165 13.0 17.4 0.00 0.00 0.00 25 1002.3
20260510061531 76 167 12.2 13.9 0.00 0.00 0.00 25 1002.3
20260510060026 77 168 13.0 16.5 0.00 0.00 0.00 25 1002.4
20260510054613 77 175 12.2 13.9 0.00 0.00 0.00 24 1002.4
20260510053021 77 171 12.2 17.4 0.00 0.00 0.00 24 1002.4
20260510051518 78 171 11.3 14.8 0.00 0.00 0.00 23 1002.3
20260510050016 79 147 13.0 15.6 0.00 0.00 0.00 22 1002.3
20260510044616 79 180 13.0 17.4 0.00 0.00 0.00 21 1002.4
20260510043009 79 171 15.6 21.7 0.00 0.00 0.00 19 1002.2
20260510041508 80 170 13.9 16.5 0.00 0.00 0.00 18 1002.2
20260510040008 81 167 13.9 20.0 0.00 0.00 0.00 16 1002.0
20260510034608 81 167 12.2 17.4 0.00 0.00 0.00 15 1001.9
20260510033020 82 170 10.4 14.8 0.00 0.00 0.00 15 1001.9
20260510031520 82 171 10.4 13.9 0.00 0.00 0.00 15 1001.9
20260510030011 83 165 9.6 14.8 0.00 0.00 0.00 14 1001.8
20260510024513 85 169 10.4 13.9 0.00 0.00 0.00 13 1001.7
20260510023011 85 177 9.6 11.3 0.00 0.00 0.00 13 1001.4
20260510021513 87 172 11.3 13.0 0.00 0.00 0.00 12 1001.3
20260510020006 87 171 9.6 10.4 0.00 0.00 0.00 12 1001.2
20260510014506 88 168 8.7 11.3 0.00 0.00 0.00 12 1001.0
20260510013005 89 175 7.8 10.4 0.00 0.00 0.00 11 1000.9
20260510011505 91 186 7.8 11.3 0.00 0.00 0.00 11 1000.8
20260510010059 91 191 7.0 10.4 0.00 0.00 0.00 10 1000.7
20260510004555 92 199 6.1 8.7 0.00 0.00 0.00 10 1000.7
20260510003057 93 197 6.1 8.7 0.00 0.00 0.00 10 1000.6
20260510001550 93 191 8.7 11.3 0.00 0.00 0.00 9 1000.7
20260510000114 93 162 7.0 10.4 0.00 0.00 0.00 9 1000.8
20260509234618 93 215 6.1 9.6 0.00 0.00 0.00 9 1000.9
20260509233059 93 200 5.2 12.2 0.00 0.00 0.00 9 1001.1
20260509231610 93 193 7.8 16.5 0.00 0.00 0.00 9 1001.1
20260509230105 94 189 2.6 7.8 0.00 0.00 0.00 10 1001.3
20260509224555 93 189 6.1 13.0 0.00 0.00 0.00 10 1001.4
20260509223052 93 202 8.7 13.9 0.00 0.00 0.00 10 1001.6
20260509221549 94 241 0.0 7.0 0.00 0.00 0.00 9 1001.7
20260509220046 94 269 7.0 20.0 0.00 0.00 0.00 10 1001.9
20260509214544 93 192 4.3 12.2 0.00 0.00 0.00 10 1002.1
20260509213045 93 165 5.2 9.6 0.00 0.00 0.00 11 1002.3
20260509211549 93 195 1.7 9.6 0.00 0.00 0.00 11 1002.6
20260509210056 92 231 3.5 13.9 0.00 0.00 0.00 11 1002.9
20260509204538 92 191 6.1 12.2 0.00 0.00 0.00 12 1003.3
20260509203042 92 210 7.8 14.8 0.00 0.00 0.00 13 1003.6
20260509201533 91 200 6.1 14.8 0.00 0.00 0.00 12 1003.9
20260509200050 90 194 11.3 15.6 0.00 0.00 0.00 13 1004.1
20260509194541 91 218 11.3 18.2 0.00 0.00 0.00 14 1004.4
20260509193044 89 213 8.7 16.5 0.00 0.00 0.00 14 1004.5
20260509191540 89 221 13.9 19.1 0.00 0.00 0.00 14 1004.7
20260509190036 88 196 12.2 19.1 0.00 0.00 0.00 15 1004.9
20260509184540 87 197 10.4 16.5 0.00 0.00 0.00 16 1005.1
20260509183032 87 221 11.3 18.2 0.00 0.00 0.00 16 1005.4
20260509181525 86 192 13.0 19.1 0.00 0.00 0.00 17 1005.6
20260509180024 86 196 13.9 19.1 0.00 0.00 0.00 18 1006.0
20260509174522 84 196 10.4 13.0 0.00 0.00 0.00 20 1006.3
20260509173028 85 182 9.6 14.8 0.00 0.00 0.00 20 1006.5
20260509171533 84 180 10.4 14.8 0.00 0.00 0.00 20 1006.5
20260509170019 82 202 7.8 15.6 0.00 0.00 0.00 23 1006.7
20260509164517 81 173 7.0 14.8 0.00 0.00 0.00 25 1006.8
20260509163107 80 174 10.4 14.8 0.00 0.00 0.00 25 1006.8
20260509163001 80 158 8.7 13.9 0.00 0.00 0.00 25 1006.9
20260509161559 79 206 8.7 12.2 0.00 0.00 0.00 27 1006.9
20260509160054 77 163 7.8 10.4 0.00 0.00 0.00 28 1007.0
20260509154605 76 173 7.0 8.7 0.00 0.00 0.00 30 1007.1
20260509153019 74 180 5.2 11.3 0.00 0.00 0.00 34 1007.1
20260509151506 73 173 7.0 8.7 0.00 0.00 0.00 36 1007.3
20260509150003 72 177 5.2 9.6 0.00 0.00 0.00 38 1007.3
20260509144503 71 180 7.0 11.3 0.00 0.00 0.00 39 1007.4